Regional Weather Roundup
Issued by NWS

Home | Current Version | Previous Version | Graphics & Text | Print | Product List | Glossary On
Versions: 1 2 3 4 5 6 7 8 9 10 11 12 13 14 15 16 17 18 19 20 21 22 23 24 25 26 27 28 29 30 31 32 33 34 35 36 37 38 39 40 41 42 43 44 45 46 47 48 49 50
000
ASUS44 KMEG 191600
RWRTN
TENNESSEE HOURLY STATE WEATHER ROUNDUP
NATIONAL WEATHER SERVICE MEMPHIS TN
1100 AM CDT SAT APR 19 2014

TNZ002-004-019-021-049-052-054-088>092-191700-
WEST TENNESSEE

CITY           SKY/WX    TMP DP  RH WIND       PRES   REMARKS
MEMPHIS INTL   MOSUNNY   74  43  32 NE10      30.21F
NWS MEMPHIS      N/A     73 N/A N/A MISG        N/A
JACKSON        SUNNY     73  39  29 NE10      30.22S
DYERSBURG      SUNNY     72  45  37 NE9       30.24F
UNION CITY     SUNNY     70  46  43 VRB7      30.23F
LEXINGTON      SUNNY     70  39  32 NE9       30.21F
$$

TNZ008-025-027-028-033-062-065-066-191700-
NORTH MIDDLE TENNESSEE

CITY           SKY/WX    TMP DP  RH WIND       PRES   REMARKS
NASHVILLE      MOSUNNY   72  40  31 NE17      30.22F
CLARKSVILLE    SUNNY     69  44  40 E15       30.24S
COOKEVILLE     SUNNY     66  43  42 N7        30.19S
CROSSVILLE     CLOUDY    63  37  38 NE13      30.20S
$$

TNZ061-075-076-078-094-096-097-191700-
SOUTH MIDDLE TENNESSEE

CITY           SKY/WX    TMP DP  RH WIND       PRES   REMARKS
TULLAHOMA      SUNNY     66  39  37 N14       30.19S
WINCHESTER     SUNNY     64  45  48 N9        30.17S
MCMINNVILLE    SUNNY     64  43  45 NE13      30.19S
COLUMBIA       SUNNY     70  52  52 NE15      30.19F
$$

TNZ017-018-042-046-047-191700-
NORTHEAST TENNESSEE

CITY           SKY/WX    TMP DP  RH WIND       PRES   REMARKS
TRI CITIES     CLOUDY    65  34  31 NE12G20   30.18F
ELIZABETHTON   SUNNY     61  32  33 CALM      30.18R
$$

TNZ012-013-036-069-073-074-191700-
CENTRAL EAST TENNESSEE

CITY           SKY/WX    TMP DP  RH WIND       PRES   REMARKS
KNOXVILLE      CLOUDY    64  42  44 NE15G22   30.15F
OAK RIDGE      CLOUDY    69  40  34 E9        30.17F
$$

TNZ083-085-099-191700-
SOUTHEAST TENNESSEE

CITY           SKY/WX    TMP DP  RH WIND       PRES   REMARKS
CHATTANOOGA    PTSUNNY   63  40  42 NE10      30.15S
$$

SKY/WX REPORTED AS FAIR MEANS FEW OR NO CLOUDS BELOW
12 THOUSAND FEET.




USA.gov is the U.S. government's official web portal to all federal, state and local government web resources and services.